Вернуться в каталог

KORSAT-1

АктивенСвязьVLEO
NORAD 59452·PAYLOAD·🇰🇷 South Korea

Запущен Apr 7, 2024 с Cape Canaveral Space Force Station

Loading…

Ближайшие Пролёты (ближайшие 24 часа)

TLE

СвежийSource: Space-Track

Эпоха: Sep 14, 2026, 21:48 UTC

1 59452U 24066L   26257.90848296  .00002785  00000-0  24765-3 0  9990
2 59452  45.4107 139.3950 0005944 194.1037 165.9676 14.98581301133518

Отслеживайте KORSAT-1 в реальном времени с AllMySat

Download on the App Store